TimeCDT,TemperatureF,Dew PointF,Humidity,Sea Level PressureIn,VisibilityMPH,Wind Direction,Wind SpeedMPH,Gust SpeedMPH,PrecipitationIn,Events,Conditions,WindDirDegrees,DateUTC
12:53 AM,66.9,61.0,81,30.04,10.0,SE,5.8,-,N/A,,Clear,140,2011-10-16 05:53:00
1:53 AM,66.9,62.1,84,30.04,10.0,ESE,3.5,-,N/A,,Clear,120,2011-10-16 06:53:00
2:53 AM,66.9,63.0,87,30.03,10.0,Calm,Calm,-,N/A,,Clear,0,2011-10-16 07:53:00
3:53 AM,64.4,60.8,88,30.07,10.0,Calm,Calm,-,N/A,,Clear,0,2011-10-16 08:53:00
4:53 AM,63.0,60.1,90,30.02,10.0,NW,3.5,-,N/A,,Clear,320,2011-10-16 09:53:00
5:53 AM,62.1,59.0,90,30.03,10.0,WNW,4.6,-,N/A,,Clear,300,2011-10-16 10:53:00
6:53 AM,61.0,59.0,93,30.04,10.0,WNW,4.6,-,N/A,,Clear,300,2011-10-16 11:53:00
7:53 AM,61.0,59.0,93,30.05,8.0,WNW,4.6,-,N/A,Fog,Patches of Fog,300,2011-10-16 12:53:00
8:53 AM,66.0,62.1,87,30.05,10.0,Calm,Calm,-,N/A,Fog,Patches of Fog,0,2011-10-16 13:53:00
9:53 AM,71.1,66.0,84,30.07,10.0,Calm,Calm,-,N/A,,Clear,0,2011-10-16 14:53:00
10:53 AM,75.9,63.0,64,30.07,10.0,Calm,Calm,-,N/A,,Partly Cloudy,0,2011-10-16 15:53:00
11:53 AM,79.0,62.1,56,30.06,10.0,South,9.2,-,N/A,,Partly Cloudy,190,2011-10-16 16:53:00
12:53 PM,81.0,62.1,52,30.04,10.0,Variable,3.5,-,N/A,,Partly Cloudy,0,2011-10-16 17:53:00
1:53 PM,82.0,62.1,51,30.00,10.0,SSW,9.2,-,N/A,,Partly Cloudy,210,2011-10-16 18:53:00
2:53 PM,82.9,61.0,47,29.97,10.0,SSE,9.2,-,N/A,,Partly Cloudy,160,2011-10-16 19:53:00
3:53 PM,84.0,61.0,46,29.95,10.0,SSE,8.1,-,N/A,,Partly Cloudy,160,2011-10-16 20:53:00
4:53 PM,84.0,60.1,44,29.94,10.0,South,10.4,16.1,N/A,,Partly Cloudy,170,2011-10-16 21:53:00
5:53 PM,82.9,59.0,44,29.93,10.0,Variable,3.5,-,N/A,,Scattered Clouds,0,2011-10-16 22:53:00
6:53 PM,81.0,59.0,47,29.93,10.0,South,9.2,-,N/A,,Partly Cloudy,170,2011-10-16 23:53:00
7:53 PM,77.0,60.1,56,29.94,10.0,SE,5.8,-,N/A,,Clear,140,2011-10-17 00:53:00
8:53 PM,75.9,60.1,58,29.94,10.0,SE,3.5,-,N/A,,Clear,130,2011-10-17 01:53:00
9:53 PM,73.9,61.0,64,29.94,10.0,Calm,Calm,-,N/A,,Clear,0,2011-10-17 02:53:00
10:53 PM,71.1,61.0,70,29.95,10.0,Calm,Calm,-,N/A,,Clear,0,2011-10-17 03:53:00
11:53 PM,72.0,63.0,73,29.95,10.0,SSE,8.1,-,N/A,,Clear,160,2011-10-17 04:53:00